Showing default

YAOGAN-35 C, 49393

Orbit data source: Space-Track

YAOGAN-35 C, 49393 is a payload satellite owned by PLA GAD (CN) in LEO that was launched on Sat, 06 Nov 2021 UTC via a CHANG ZHENG 2D launch vehicle from the Xichang Space Center, China (XSC). Payload-class satellites include a variety of spacecraft equipped with specific instruments for various scientific and technological missions. These include communications satellites like Starlink; space stations such as the ISS; scientific satellites like the Hubble; Earth observation satellites from companies like Planet Labs, Umbra, and HawkEye 360; GPS; miniature CubeSats for education and research; and military/defense satellites.

Loading next visibility...
Identifier
49393, 2021-101D
Orbit
LEO
Country
Flag of CNCN / PRC
Related business
Manufacturer
DFH
Mission
Operational Defense Sigint
Bus & Motor
Unknown
Mass
~300 kg wet, ~300 kg dry
Launch date (UTC)
2021-11-06 (5 years ago)
Launch vehicle
CHANG ZHENG 2D
Launch site
Xichang Space Center, China (XSC)
Object type
Payload
Rocket body
Debris
Shape & HBR
Box + 2 Pan, 2.5 m
Radar Cross Section
11.063 m², Large (>1 m²)

Expand to show TLE details & history
Last TLE update: 1 day ago

TLE from 1 day ago
0 YAOGAN-35 C
1 49393U 21101D   26172.53964208  .00008016  00000-0  33131-3 0  9997
2 49393  35.0033 237.5198 0005133  56.2420 303.8784 15.23256876257675
Epoch: 2026-06-21T12:57Z
TLE epoch observation values (Epoch: 2026-06-21T12:57:05.075Z)
Latitude
0.00001°
Longitude
133.51021°
Altitude
492.967 km
Speed
7.622 km/s
True Right ascension
15h 50m 04s
True Declination
0° 00' 00"
Sunlit
Object was in full shadow at epoch
Visualization orbit readout
Latitude
Unknown
Longitude
Unknown
Altitude
Unknown
Speed
Unknown
Apparent Right ascension
Unknown
Apparent Declination
Unknown
Sunlit
N/A
Visualization observer readout
Local Sidereal Time
00:24:58
Azimuth
Unknown
Elevation
Unknown
Doppler factor
Unknown
Orbital elements
Apogee altitude
502.805 km
Perigee altitude
495.745 km
Semi-major axis
6,877.412 km
Eccentricity
0.00051
Inclination
35.0033°
RAAN
237.5198°
Arg. of periapsis
56.242°
True anomaly
303.82955°
Mean anomaly
303.8784°
Eccentric anomaly
303.85398°
Mean motion
3.80545 °/min
Orbital period
94.6 mins
BSTAR
0.00033131
Loading maneuver chart data...
Computing Atmospheric mass density...
Loading historical data...
Loading historical data...
Loading historical data...
Loading historical data...
Loading historical data...
Loading historical data...
Loading historical data...

Documentation

Showing up to 5 results
|